[[{"header":{"parameterUnit":"m.s-1","parameterCategory":1,"la1":30.2991,"la2":30.254,"lo1":-89.0895,"lo2":-89.0444,"dy":0.0017,"dx":0.0017,"nx":28,"ny":28,"refTime":"2024-03-12T21:00:00:Z","depth":0,"parameterNumber":2,"parameterNumberName":"U-component_of_WINDS"},"data":[0,0,0,0,0,0,0,0,0,0,0,0,0,0,0,0,0,0,0,0,0,0,0,0,0,0,0,0,0,0,0,0,0,0,0,0,0,0,0,0,0,0,0,0,0,0,0,0,0,0,0,0,0,0,0,0,0,0,-1.7175,-1.7176,0,-1.7234,-1.7234,-1.7235,-1.724,-1.724,-1.7239,-1.7239,-1.7298,-1.7301,-1.7303,0,0,0,0,0,0,0,0,0,0,0,0,0,-1.7069,-1.7071,-1.7175,-1.7176,-1.7177,-1.7234,-1.7234,-1.7235,-1.724,-1.724,-1.7239,-1.7238,-1.7298,-1.73,-1.7303,0,0,0,0,0,0,0,0,0,0,0,0,0,-1.712,-1.7071,-1.7175,-1.7186,-1.7188,-1.7233,-1.7234,-1.7235,-1.7241,-1.724,-1.7239,-1.7238,-1.7297,-1.73,-1.7303,-1.7342,0,0,-1.7313,-1.7315,0,0,0,0,0,0,0,0,-1.7117,-1.7124,-1.7184,-1.7185,-1.7187,-1.7229,-1.7219,-1.7271,-1.7241,-1.7221,-1.7239,-1.7237,-1.7276,-1.7281,-1.7294,-1.7345,-1.7347,-1.7314,-1.7315,-1.7317,-1.7318,0,0,0,0,0,0,0,-1.7113,-1.7121,-1.7198,-1.7185,-1.7187,-1.7188,-1.7195,-1.7229,-1.7253,-1.7222,-1.7223,-1.723,-1.7277,-1.7291,-1.7295,-1.7348,-1.7313,-1.7316,-1.7318,-1.732,-1.7433,-1.7434,0,0,0,0,0,0,-1.7108,-1.7118,-1.7196,-1.72,-1.7149,-1.7191,-1.7198,-1.7216,-1.7252,-1.7257,-1.723,-1.723,-1.7286,-1.7292,-1.7298,-1.7345,-1.7317,-1.732,-1.7322,-1.7432,-1.7433,-1.7435,0,0,0,0,0,0,-1.7105,-1.7115,-1.7194,-1.7159,-1.717,-1.7194,-1.7214,-1.7218,-1.7232,-1.7259,-1.7263,-1.724,-1.7285,-1.7293,-1.7331,-1.7347,-1.7321,-1.7324,-1.7431,-1.7433,-1.7434,-1.744,0,0,0,0,0,0,-1.7102,-1.7114,-1.7129,-1.716,-1.7171,-1.7226,-1.7215,-1.722,-1.7238,-1.7237,-1.7269,-1.7273,-1.7285,-1.7326,-1.7334,-1.7351,-1.7327,-1.743,-1.7432,-1.7434,-1.7438,-1.7441,-1.7444,0,0,0,0,0,-1.7098,-1.7128,-1.7129,-1.7139,-1.719,-1.7227,-1.7234,-1.7247,-1.7239,-1.7254,-1.7271,-1.7272,-1.7344,-1.733,-1.7339,-1.7357,-1.7429,-1.7431,-1.7433,-1.7437,-1.7441,-1.7444,0,0,0,0,0,0,-1.7098,-1.7132,-1.7134,-1.7174,-1.7198,-1.7228,-1.7248,-1.7251,-1.7277,-1.7275,-1.7291,-1.7298,-1.7335,-1.735,-1.7333,-1.7396,-1.7385,-1.739,-1.7385,-1.7389,-1.7391,-1.7387,-1.733,0,0,0,0,0,-1.7103,-1.713,-1.7158,-1.7191,-1.7203,-1.7223,-1.724,-1.7248,-1.7273,-1.7282,-1.7302,-1.7326,-1.7354,-1.7372,-1.74,-1.744,-1.7447,-1.7457,-1.746,-1.7463,-1.7466,-1.7488,-1.7493,-1.7442,-1.7442,-1.7442,0,0,-1.7113,-1.7135,-1.7151,-1.7191,-1.7211,-1.7238,-1.7231,-1.7261,-1.7281,-1.7287,-1.7324,-1.7339,-1.7367,-1.7406,-1.7425,-1.742,-1.7481,-1.7466,-1.7467,-1.7469,-1.7491,-1.7496,-1.75,-1.7444,-1.7444,-1.7444,0,0,-1.7145,-1.7164,-1.7193,-1.7213,-1.7242,-1.7255,-1.7262,-1.7292,-1.7302,-1.734,-1.7344,-1.7369,-1.7417,-1.7436,-1.7453,-1.7492,-1.7494,-1.7501,-1.7515,-1.7537,-1.7541,-1.7544,-1.7558,-1.7563,-1.7504,-1.7504,-1.7504,0,-1.7153,-1.7195,-1.7208,-1.7237,-1.7255,-1.7261,-1.7291,-1.7309,-1.7346,-1.7358,-1.7352,-1.7412,-1.7432,-1.7475,-1.7485,-1.7498,-1.7506,-1.7497,-1.7539,-1.7543,-1.7547,-1.756,-1.7565,-1.7505,-1.7505,-1.7505,-1.7504,0,-1.7204,-1.7232,-1.7253,-1.7287,-1.7308,-1.7337,-1.7355,-1.7374,-1.738,-1.7394,-1.7432,-1.7455,-1.7487,-1.7498,-1.7505,-1.7543,-1.7539,-1.7536,-1.7526,-1.7552,-1.7564,-1.7569,-1.7505,-1.7505,-1.7505,-1.7505,0,0,-1.7236,-1.7278,-1.7285,-1.7301,-1.7334,-1.7356,-1.7386,-1.7417,-1.7433,-1.7458,-1.7483,-1.7523,-1.7521,-1.7539,-1.7548,-1.7567,-1.7596,-1.7562,-1.7563,-1.7567,-1.7639,-1.764,-1.7646,-1.7598,-1.7599,-1.76,-1.7637,0,-1.7271,-1.7324,-1.7337,-1.7382,-1.7409,-1.7416,-1.7441,-1.7464,-1.7478,-1.7503,-1.7518,-1.7547,-1.7542,-1.7553,-1.7572,-1.7589,-1.7611,-1.7586,-1.7621,-1.7622,-1.7613,-1.7653,-1.7654,-1.7688,-1.7642,-1.7642,-1.7643,0,-1.7319,-1.7345,-1.7393,-1.7422,-1.7433,-1.7456,-1.7486,-1.7509,-1.7535,-1.7544,-1.7565,-1.7572,-1.7603,-1.7591,-1.7634,-1.7617,-1.7632,-1.7643,-1.7644,-1.7647,-1.7634,-1.7656,-1.7699,-1.7704,-1.7651,-1.765,-1.765,0,-1.7338,-1.7385,-1.7419,-1.7432,-1.7467,-1.7483,-1.7498,-1.7523,-1.7541,-1.7567,-1.7579,-1.7608,-1.7624,-1.7646,-1.7661,-1.7651,-1.7702,-1.7692,-1.771,-1.771,-1.772,-1.7719,-1.7765,-1.7731,-1.7731,-1.7731,-1.7731,0,-1.7375,-1.7404,-1.7428,-1.7449,-1.7481,-1.7496,-1.7528,-1.7543,-1.7566,-1.759,-1.7597,-1.762,-1.7638,-1.7663,-1.7675,-1.7708,-1.7716,-1.7723,-1.7726,-1.7722,-1.7721,-1.7732,-1.773,-1.7732,-1.7732,-1.7731,-1.7731,0,-1.7401,-1.7418,-1.7456,-1.7486,-1.7494,-1.7516,-1.7542,-1.7563,-1.7577,-1.7607,-1.7615,-1.7638,-1.7668,-1.7685,-1.7722,-1.773,-1.7767,-1.7769,-1.7758,-1.7759,-1.7776,-1.7774,-1.783,-1.7838,-1.7799,-1.7799,-1.78,0,-1.7423,-1.7446,-1.7478,-1.7494,-1.751,-1.7537,-1.7555,-1.757,-1.7589,-1.762,-1.7637,-1.7667,-1.7692,-1.774,-1.7759,-1.7788,-1.779,-1.7808,-1.7794,-1.779,-1.779,-1.7788,-1.779,-1.781,-1.781,-1.781,-1.7811,0,-1.7461,-1.7468,-1.7494,-1.7523,-1.7545,-1.7568,-1.7591,-1.7605,-1.7624,-1.7645,-1.7675,-1.7695,-1.7733,-1.7763,-1.7793,-1.7809,-1.7813,-1.7815,-1.782,-1.7816,-1.7809,-1.7813,-1.7764,-1.7813,-1.7813,-1.7813,-1.7813,-1.7813,-1.7485,-1.7505,-1.7531,-1.7559,-1.7579,-1.76,-1.7621,-1.7638,-1.7664,-1.7696,-1.7704,-1.7736,-1.7761,-1.7802,-1.7818,-1.7844,-1.784,-1.7849,-1.7851,-1.7852,-1.7852,-1.7806,-1.7849,-1.7849,-1.7849,-1.7849,-1.7849,0,-1.7523,-1.754,-1.7566,-1.7598,-1.7621,-1.7623,-1.7649,-1.7667,-1.7695,-1.7719,-1.7743,-1.7778,-1.7807,-1.7829,-1.7858,-1.7874,-1.7877,-1.7881,-1.788,-1.7883,-1.7854,-1.7846,-1.7879,-1.7879,-1.7879,-1.7879,-1.7879,-1.7879,-1.7545,-1.7579,-1.7589,-1.7632,-1.7649,-1.768,-1.7695,-1.7715,-1.7734,-1.7772,-1.7796,-1.781,-1.7833,-1.7864,-1.7891,-1.7896,-1.7907,-1.7911,-1.7916,-1.7889,-1.7885,-1.7882,-1.7875,-1.7913,-1.7913,-1.7944,-1.7944,-1.7944]},{"header":{"parameterUnit":"m.s-1","parameterCategory":1,"la1":30.2991,"la2":30.254,"lo1":-89.0895,"lo2":-89.0444,"dy":0.0017,"dx":0.0017,"nx":28,"ny":28,"refTime":"2024-03-12T21:00:00:Z","depth":0,"parameterNumber":3,"parameterNumberName":"V-component_of_WINDS"},"data":[0,0,0,0,0,0,0,0,0,0,0,0,0,0,0,0,0,0,0,0,0,0,0,0,0,0,0,0,0,0,0,0,0,0,0,0,0,0,0,0,0,0,0,0,0,0,0,0,0,0,0,0,0,0,0,0,0,0,0.5104,0.5104,0,0.5099,0.5099,0.5099,0.5062,0.5061,0.506,0.5059,0.5055,0.5055,0.5056,0,0,0,0,0,0,0,0,0,0,0,0,0,0.5081,0.5082,0.5104,0.5104,0.5104,0.5099,0.5099,0.5099,0.5062,0.5061,0.506,0.5059,0.5054,0.5055,0.5056,0,0,0,0,0,0,0,0,0,0,0,0,0,0.5085,0.5082,0.5104,0.5085,0.5083,0.5099,0.5099,0.5099,0.5063,0.5061,0.506,0.5059,0.5054,0.5055,0.5056,0.509,0,0,0.5059,0.506,0,0,0,0,0,0,0,0,0.5085,0.5086,0.5088,0.5086,0.5084,0.508,0.5089,0.5096,0.5063,0.507,0.5059,0.5058,0.5064,0.5064,0.5066,0.509,0.5089,0.5059,0.506,0.5061,0.5061,0,0,0,0,0,0,0,0.5085,0.5086,0.5102,0.5088,0.5086,0.5076,0.5076,0.509,0.5075,0.507,0.5067,0.5067,0.5063,0.5065,0.5066,0.5089,0.5059,0.506,0.5061,0.5061,0.514,0.5141,0,0,0,0,0,0,0.5087,0.5086,0.5102,0.5102,0.5081,0.5078,0.5077,0.5083,0.5075,0.5072,0.5068,0.5065,0.5064,0.5065,0.5066,0.5104,0.5061,0.5062,0.5062,0.5139,0.514,0.5142,0,0,0,0,0,0,0.5087,0.5089,0.5102,0.5093,0.5094,0.508,0.5086,0.5083,0.5086,0.5073,0.507,0.5073,0.5063,0.5064,0.5084,0.5104,0.5062,0.5063,0.5137,0.5139,0.5141,0.5183,0,0,0,0,0,0,0.5086,0.5089,0.5101,0.5094,0.5095,0.5121,0.5088,0.5084,0.5088,0.5084,0.5078,0.5075,0.5062,0.5083,0.5085,0.5104,0.5064,0.5135,0.5138,0.514,0.5179,0.5186,0.5192,0,0,0,0,0,0.5085,0.5113,0.5102,0.5104,0.511,0.5122,0.5123,0.5107,0.5089,0.5102,0.5094,0.5076,0.5101,0.5085,0.5087,0.5107,0.5134,0.5137,0.514,0.5177,0.5185,0.5191,0,0,0,0,0,0,0.5124,0.5112,0.51,0.5126,0.5125,0.5116,0.5131,0.5116,0.512,0.5116,0.5097,0.5096,0.5119,0.5115,0.5097,0.514,0.5114,0.5118,0.5141,0.5149,0.5155,0.5155,0.5065,0,0,0,0,0,0.5135,0.5146,0.5135,0.5159,0.5159,0.5146,0.515,0.5138,0.5137,0.5136,0.513,0.5129,0.5137,0.5143,0.5149,0.5179,0.5177,0.5194,0.52,0.5205,0.5208,0.5224,0.5231,0.5153,0.5153,0.5153,0,0,0.5159,0.5154,0.5162,0.5167,0.5165,0.5176,0.5145,0.5159,0.5167,0.5138,0.5157,0.5152,0.515,0.5175,0.5186,0.5173,0.523,0.5209,0.5213,0.5214,0.5228,0.5236,0.5242,0.5155,0.5154,0.5154,0,0,0.5208,0.5205,0.5225,0.5224,0.5222,0.5212,0.5217,0.521,0.5206,0.5224,0.5203,0.5213,0.5227,0.5226,0.5228,0.5277,0.526,0.528,0.5311,0.5327,0.5333,0.5338,0.5356,0.5363,0.5284,0.5284,0.5284,0,0.5238,0.5255,0.5237,0.5252,0.5255,0.523,0.5249,0.5249,0.5249,0.5252,0.5237,0.5254,0.5251,0.5276,0.5288,0.529,0.5295,0.528,0.5334,0.5339,0.5344,0.536,0.5367,0.5286,0.5286,0.5286,0.5285,0,0.5291,0.5303,0.5319,0.532,0.5325,0.5342,0.5328,0.5335,0.5322,0.5315,0.5334,0.5329,0.5334,0.5339,0.5327,0.5362,0.5354,0.5337,0.5311,0.5354,0.5369,0.5375,0.5289,0.5289,0.5288,0.5287,0,0,0.5364,0.5356,0.5362,0.5362,0.5358,0.5367,0.5383,0.5388,0.5394,0.5395,0.5409,0.5421,0.5405,0.5407,0.5395,0.5408,0.5448,0.5389,0.5389,0.5401,0.5487,0.55,0.5507,0.5437,0.5438,0.5439,0.5487,0,0.5412,0.5439,0.5424,0.5454,0.5464,0.544,0.5455,0.5454,0.5447,0.5455,0.5447,0.5457,0.5435,0.5436,0.5448,0.5441,0.5465,0.5437,0.5449,0.545,0.545,0.5515,0.5529,0.5574,0.5493,0.5494,0.5494,0,0.547,0.5474,0.5505,0.5499,0.5503,0.5516,0.5519,0.5527,0.5526,0.552,0.5522,0.5507,0.5523,0.5497,0.5518,0.55,0.5504,0.5501,0.5502,0.5503,0.5475,0.5518,0.5588,0.5595,0.5504,0.5503,0.5502,0,0.5521,0.5533,0.5553,0.5554,0.5547,0.5557,0.5555,0.5552,0.5556,0.556,0.5562,0.5567,0.557,0.5575,0.5561,0.5544,0.5584,0.5558,0.558,0.558,0.5589,0.5589,0.5662,0.5592,0.5592,0.5592,0.5592,0,0.5575,0.5595,0.5576,0.5588,0.5609,0.5592,0.5614,0.5609,0.5607,0.5618,0.5597,0.5608,0.5589,0.5598,0.5588,0.5607,0.5609,0.5604,0.5601,0.5606,0.5607,0.5609,0.5605,0.5594,0.5593,0.5593,0.5593,0,0.5635,0.5623,0.5643,0.5635,0.5634,0.565,0.5643,0.5654,0.5646,0.566,0.5663,0.565,0.566,0.5647,0.5655,0.5648,0.5674,0.5666,0.5675,0.5673,0.5696,0.5694,0.5772,0.5782,0.5706,0.5707,0.5707,0,0.567,0.5685,0.5679,0.5685,0.5684,0.5694,0.5698,0.5682,0.5687,0.5686,0.5698,0.5705,0.5711,0.5727,0.5718,0.5725,0.5717,0.5744,0.5718,0.5722,0.5717,0.5717,0.5718,0.5749,0.575,0.5751,0.5752,0,0.5735,0.5728,0.5735,0.574,0.5746,0.5749,0.5751,0.5757,0.574,0.5747,0.5756,0.5761,0.5769,0.5777,0.5781,0.5779,0.5763,0.576,0.5766,0.5771,0.5775,0.5773,0.569,0.5758,0.5758,0.5757,0.5757,0.5757,0.5783,0.5795,0.5793,0.5802,0.5801,0.5803,0.5813,0.5807,0.5814,0.582,0.581,0.5822,0.582,0.5824,0.5824,0.5833,0.5821,0.5829,0.5831,0.5833,0.5837,0.5774,0.5833,0.5833,0.5833,0.5833,0.5833,0,0.5847,0.5844,0.5852,0.5855,0.5862,0.5846,0.5848,0.5854,0.5865,0.5865,0.5871,0.5882,0.589,0.5882,0.5888,0.5897,0.589,0.59,0.5899,0.5899,0.5847,0.5842,0.5905,0.5905,0.5905,0.5905,0.5905,0.5905,0.5881,0.59,0.5893,0.5912,0.591,0.5921,0.5923,0.5925,0.5925,0.5938,0.5945,0.594,0.5937,0.5943,0.5949,0.5947,0.595,0.5962,0.5957,0.5909,0.5902,0.5895,0.589,0.5963,0.5963,0.6008,0.6008,0.6009]}]]